TimeCST,TemperatureF,Dew PointF,Humidity,Sea Level PressureIn,VisibilityMPH,Wind Direction,Wind SpeedMPH,Gust SpeedMPH,PrecipitationIn,Events,Conditions,WindDirDegrees,DateUTC
12:14 AM,-11.2,-16.6,77,30.16,10.0,WNW,4.6,-,N/A,,Scattered Clouds,300,2014-01-07 06:14:00
12:34 AM,-11.2,-16.6,77,30.14,10.0,Calm,Calm,-,N/A,,Clear,0,2014-01-07 06:34:00
12:53 AM,-11.2,-16.6,77,30.14,10.0,WNW,4.6,-,N/A,,Scattered Clouds,290,2014-01-07 06:53:00
1:14 AM,-11.2,-18.4,70,30.14,10.0,WNW,3.5,-,N/A,,Clear,300,2014-01-07 07:14:00
1:34 AM,-11.2,-18.4,70,30.13,10.0,WNW,3.5,-,N/A,,Clear,290,2014-01-07 07:34:00
1:53 AM,-11.2,-16.6,77,30.13,10.0,WNW,3.5,-,N/A,,Clear,300,2014-01-07 07:53:00
2:14 AM,-11.2,-16.6,77,30.13,10.0,WNW,3.5,-,N/A,,Clear,290,2014-01-07 08:14:00
2:33 AM,-11.2,-16.6,77,30.13,10.0,Calm,Calm,-,N/A,,Clear,0,2014-01-07 08:33:00
2:54 AM,-9.4,-14.8,77,30.12,10.0,Calm,Calm,-,N/A,,Clear,0,2014-01-07 08:54:00
3:14 AM,-9.4,-14.8,77,30.13,10.0,Calm,Calm,-,N/A,,Mostly Cloudy,0,2014-01-07 09:14:00
3:33 AM,-9.4,-14.8,77,30.13,10.0,Calm,Calm,-,N/A,,Overcast,0,2014-01-07 09:33:00
3:54 AM,-7.6,-14.8,71,30.13,10.0,Calm,Calm,-,N/A,,Overcast,0,2014-01-07 09:54:00
4:14 AM,-9.4,-14.8,77,30.12,10.0,Calm,Calm,-,N/A,,Overcast,0,2014-01-07 10:14:00
4:34 AM,-7.6,-14.8,71,30.11,10.0,Calm,Calm,-,N/A,,Overcast,0,2014-01-07 10:34:00
4:53 AM,-7.6,-14.8,71,30.10,10.0,SW,3.5,-,N/A,,Overcast,230,2014-01-07 10:53:00
5:14 AM,-7.6,-13.0,77,30.10,10.0,WSW,4.6,-,N/A,,Overcast,250,2014-01-07 11:14:00
5:34 AM,-7.6,-13.0,77,30.10,10.0,WSW,4.6,-,N/A,,Overcast,240,2014-01-07 11:34:00
5:53 AM,-5.8,-11.2,77,30.08,10.0,SW,4.6,-,N/A,,Overcast,230,2014-01-07 11:53:00
6:14 AM,-5.8,-11.2,77,30.10,10.0,West,3.5,-,N/A,,Overcast,260,2014-01-07 12:14:00
6:34 AM,-5.8,-11.2,77,30.11,10.0,Calm,Calm,-,N/A,,Overcast,0,2014-01-07 12:34:00
6:54 AM,-5.8,-11.2,77,30.10,10.0,WSW,4.6,-,N/A,,Overcast,240,2014-01-07 12:54:00
7:14 AM,-5.8,-9.4,84,30.10,10.0,WSW,4.6,-,N/A,,Overcast,240,2014-01-07 13:14:00
7:34 AM,-4.0,-9.4,78,30.10,10.0,West,4.6,-,N/A,,Overcast,260,2014-01-07 13:34:00
7:54 AM,-4.0,-9.4,78,30.10,10.0,Calm,Calm,-,N/A,,Overcast,0,2014-01-07 13:54:00
8:14 AM,-2.2,-7.6,78,30.11,10.0,Calm,Calm,-,N/A,,Overcast,0,2014-01-07 14:14:00
8:34 AM,-2.2,-7.6,78,30.11,10.0,Calm,Calm,-,N/A,,Overcast,0,2014-01-07 14:34:00
8:54 AM,-2.2,-7.6,78,30.12,10.0,Calm,Calm,-,N/A,,Overcast,0,2014-01-07 14:54:00
9:14 AM,-0.4,-5.8,78,30.12,10.0,Calm,Calm,-,N/A,,Mostly Cloudy,0,2014-01-07 15:14:00
9:33 AM,3.2,-2.2,78,30.13,10.0,WNW,3.5,-,N/A,,Scattered Clouds,290,2014-01-07 15:33:00
9:54 AM,5.0,-0.4,78,30.13,10.0,WNW,4.6,-,N/A,,Clear,300,2014-01-07 15:54:00
10:13 AM,6.8,1.4,79,30.14,10.0,Calm,Calm,-,N/A,,Clear,0,2014-01-07 16:13:00
10:34 AM,6.8,1.4,79,30.15,10.0,NNW,3.5,-,N/A,,Clear,330,2014-01-07 16:34:00
10:54 AM,8.6,1.4,73,30.15,10.0,North,4.6,-,N/A,,Clear,360,2014-01-07 16:54:00
11:13 AM,6.8,-4.0,61,30.14,10.0,North,5.8,-,N/A,,Clear,360,2014-01-07 17:13:00
11:34 AM,8.6,-5.8,52,30.14,10.0,Calm,Calm,-,N/A,,Clear,0,2014-01-07 17:34:00
11:54 AM,8.6,-5.8,52,30.14,10.0,NNE,5.8,-,N/A,,Clear,20,2014-01-07 17:54:00
12:13 PM,8.6,-5.8,52,30.13,10.0,NE,4.6,-,N/A,,Clear,40,2014-01-07 18:13:00
12:34 PM,8.6,-5.8,52,30.13,10.0,North,5.8,-,N/A,,Clear,10,2014-01-07 18:34:00
12:53 PM,8.6,-2.2,62,30.13,10.0,North,5.8,-,N/A,,Clear,360,2014-01-07 18:53:00
1:14 PM,8.6,-4.0,57,30.13,10.0,North,5.8,-,N/A,,Clear,10,2014-01-07 19:14:00
1:34 PM,10.4,-2.2,57,30.13,10.0,North,6.9,-,N/A,,Clear,360,2014-01-07 19:34:00
1:54 PM,10.4,-0.4,62,30.14,10.0,NNW,8.1,-,N/A,,Clear,340,2014-01-07 19:54:00
2:14 PM,8.6,-2.2,62,30.14,10.0,North,10.4,-,N/A,,Clear,360,2014-01-07 20:14:00
2:34 PM,8.6,-0.4,67,30.15,10.0,NNW,6.9,-,N/A,,Clear,340,2014-01-07 20:34:00
2:54 PM,8.6,-2.2,62,30.15,10.0,NW,8.1,-,N/A,,Clear,320,2014-01-07 20:54:00
3:14 PM,6.8,-4.0,61,30.16,10.0,North,6.9,-,N/A,,Clear,360,2014-01-07 21:14:00
3:34 PM,6.8,-4.0,61,30.17,10.0,North,9.2,-,N/A,,Clear,10,2014-01-07 21:34:00
3:54 PM,6.8,-4.0,61,30.17,10.0,North,9.2,-,N/A,,Clear,10,2014-01-07 21:54:00
4:14 PM,6.8,-4.0,61,30.18,10.0,North,6.9,-,N/A,,Clear,360,2014-01-07 22:14:00
4:34 PM,5.0,-5.8,61,30.18,10.0,North,6.9,-,N/A,,Clear,350,2014-01-07 22:34:00
4:53 PM,3.2,-5.8,66,30.19,10.0,North,5.8,-,N/A,,Clear,360,2014-01-07 22:53:00
5:14 PM,1.4,-7.6,66,30.20,10.0,North,3.5,-,N/A,,Clear,350,2014-01-07 23:14:00
5:34 PM,-0.4,-9.4,66,30.19,10.0,Calm,Calm,-,N/A,,Clear,0,2014-01-07 23:34:00
5:54 PM,-0.4,-9.4,66,30.20,10.0,Calm,Calm,-,N/A,,Clear,0,2014-01-07 23:54:00
6:14 PM,-0.4,-9.4,66,30.21,10.0,North,6.9,-,N/A,,Clear,10,2014-01-08 00:14:00
6:34 PM,-0.4,-9.4,66,30.22,10.0,Calm,Calm,-,N/A,,Clear,0,2014-01-08 00:34:00
6:54 PM,-2.2,-9.4,71,30.23,10.0,North,4.6,-,N/A,,Clear,360,2014-01-08 00:54:00
7:14 PM,-2.2,-9.4,71,30.23,10.0,Calm,Calm,-,N/A,,Clear,0,2014-01-08 01:14:00
7:34 PM,-2.2,-11.2,66,30.22,10.0,Calm,Calm,-,N/A,,Clear,0,2014-01-08 01:34:00
7:54 PM,-2.2,-9.4,71,30.22,10.0,Calm,Calm,-,N/A,,Clear,0,2014-01-08 01:54:00
8:14 PM,-2.2,-11.2,66,30.23,10.0,Calm,Calm,-,N/A,,Clear,0,2014-01-08 02:14:00
8:34 PM,-4.0,-11.2,71,30.23,10.0,Calm,Calm,-,N/A,,Clear,0,2014-01-08 02:34:00
8:54 PM,-5.8,-11.2,77,30.24,10.0,North,3.5,-,N/A,,Clear,350,2014-01-08 02:54:00
9:14 PM,-5.8,-11.2,77,30.25,10.0,NNW,3.5,-,N/A,,Clear,340,2014-01-08 03:14:00
9:34 PM,-5.8,-11.2,77,30.25,10.0,North,4.6,-,N/A,,Clear,350,2014-01-08 03:34:00
9:54 PM,-7.6,-13.0,77,30.26,10.0,North,5.8,-,N/A,,Clear,360,2014-01-08 03:54:00
10:14 PM,-7.6,-13.0,77,30.27,10.0,North,4.6,-,N/A,,Clear,10,2014-01-08 04:14:00
10:34 PM,-7.6,-13.0,77,30.27,10.0,North,3.5,-,N/A,,Clear,10,2014-01-08 04:34:00
10:54 PM,-7.6,-13.0,77,30.27,10.0,Calm,Calm,-,N/A,,Clear,0,2014-01-08 04:54:00
11:14 PM,-7.6,-13.0,77,30.27,10.0,Calm,Calm,-,N/A,,Clear,0,2014-01-08 05:14:00
11:34 PM,-7.6,-14.8,71,30.27,10.0,North,3.5,-,N/A,,Clear,350,2014-01-08 05:34:00
11:54 PM,-7.6,-14.8,71,30.28,10.0,NNW,3.5,-,N/A,,Clear,340,2014-01-08 05:54:00